Back to catalog

SL-16 R/B

AliveLEO
NORAD 31793·ROCKET BODY·🇷🇺 Russia

Launched Jun 29, 2007 from Baikonur Cosmodrome

Loading…

Next Passes (next 24 hours)

TLE

FreshSource: Space-Track

Epoch: Sep 14, 2026, 14:31 UTC

1 31793U 07029B   26257.60552376 -.00000133  00000-0 -43979-4 0  9992
2 31793  70.9757 135.2619 0002131 279.7484  92.7019 14.14864290992091

Track SL-16 R/B in real time with AllMySat

Download on the App Store